QPF
0.01 0.00 0.00 0.00 0.01 0.02 0.04 0.06 0.05 0.02 0.01 0.02 0.02 0.03 0.02 0.02 0.01 0.01 0.01 0.02 0.02 0.04 0.07 0.05 0.11 0.10 0.13 0.15 0.13 0.24 0.27 0.20 0.13 0.08 0.07 0.02 0.00 0.00 0.00 0.00 0.00 0.00 0.00
0.03 0.01 0.01 0.01 0.02 0.04 0.06 0.08 0.08 0.06 0.05 0.06 0.06 0.04 0.03 0.01 0.01 0.01 0.01 0.01 0.01 0.02 0.04 0.07 0.09 0.14 0.20 0.22 0.24 0.29 0.21 0.15 0.14 0.15 0.15 0.08 0.08 0.04 0.01 0.00 0.00 0.00 0.00
0.03 0.01 0.02 0.03 0.04 0.04 0.04 0.04 0.05 0.05 0.04 0.04 0.04 0.03 0.03 0.01 0.01 0.01 0.01 0.01 0.01 0.02 0.05 0.10 0.13 0.22 0.25 0.28 0.27 0.22 0.19 0.18 0.19 0.17 0.19 0.18 0.17 0.10 0.01 0.00 0.00 0.00 0.00
0.01 0.01 0.02 0.02 0.02 0.02 0.02 0.01 0.01 0.01 0.01 0.01 0.01 0.01 0.02 0.01 0.01 0.02 0.02 0.02 0.03 0.04 0.08 0.12 0.18 0.23 0.23 0.26 0.18 0.19 0.25 0.25 0.25 0.26 0.23 0.20 0.18 0.17 0.07 0.02 0.00 0.00 0.00
0.01 0.01 0.01 0.01 0.01 0.01 0.01 0.01 0.01 0.00 0.00 0.00 0.00 0.00 0.00 0.01 0.01 0.03 0.05 0.05 0.06 0.09 0.11 0.16 0.21 0.22 0.22 0.22 0.20 0.26 0.26 0.29 0.30 0.28 0.27 0.29 0.25 0.18 0.12 0.08 0.03 0.01 0.00
0.00 0.00 0.00 0.01 0.01 0.01 0.01 0.00 0.00 0.01 0.01 0.00 0.01 0.01 0.01 0.01 0.02 0.03 0.06 0.10 0.13 0.15 0.17 0.19 0.22 0.22 0.22 0.21 0.20 0.20 0.21 0.23 0.28 0.25 0.23 0.24 0.22 0.19 0.16 0.12 0.06 0.02 0.00
0.01 0.01 0.01 0.01 0.01 0.01 0.01 0.01 0.01 0.01 0.01 0.01 0.02 0.02 0.02 0.03 0.03 0.05 0.08 0.12 0.15 0.17 0.18 0.19 0.23 0.23 0.22 0.20 0.18 0.17 0.19 0.24 0.26 0.23 0.22 0.19 0.14 0.12 0.11 0.10 0.05 0.04 0.01
0.01 0.01 0.01 0.01 0.01 0.01 0.01 0.01 0.02 0.03 0.03 0.03 0.04 0.03 0.03 0.06 0.08 0.10 0.12 0.15 0.16 0.15 0.16 0.20 0.23 0.26 0.25 0.25 0.27 0.25 0.26 0.26 0.25 0.25 0.27 0.20 0.11 0.08 0.07 0.08 0.09 0.10 0.08
0.01 0.01 0.01 0.01 0.01 0.01 0.02 0.02 0.03 0.04 0.04 0.03 0.03 0.02 0.03 0.05 0.09 0.12 0.14 0.18 0.21 0.23 0.25 0.27 0.29 0.30 0.31 0.33 0.36 0.38 0.37 0.36 0.35 0.35 0.31 0.20 0.10 0.08 0.07 0.08 0.12 0.14 0.13
0.01 0.01 0.01 0.01 0.01 0.01 0.02 0.02 0.02 0.01 0.01 0.00 0.01 0.01 0.02 0.03 0.05 0.06 0.08 0.11 0.17 0.23 0.27 0.30 0.31 0.32 0.32 0.31 0.34 0.39 0.40 0.39 0.38 0.30 0.21 0.15 0.09 0.08 0.08 0.09 0.13 0.16 0.17
0.01 0.01 0.01 0.01 0.01 0.01 0.02 0.02 0.02 0.01 0.01 0.01 0.01 0.02 0.02 0.03 0.04 0.06 0.07 0.10 0.15 0.19 0.20 0.22 0.22 0.20 0.18 0.17 0.18 0.19 0.22 0.21 0.19 0.13 0.11 0.09 0.10 0.09 0.08 0.10 0.13 0.17 0.20
0.00 0.00 0.00 0.01 0.01 0.01 0.01 0.01 0.01 0.01 0.01 0.01 0.01 0.01 0.01 0.00 0.01 0.02 0.03 0.05 0.07 0.09 0.09 0.08 0.07 0.06 0.05 0.04 0.05 0.05 0.06 0.08 0.08 0.08 0.09 0.09 0.09 0.11 0.12 0.12 0.13 0.17 0.23
0.00 0.00 0.00 0.00 0.00 0.00 0.00 0.01 0.01 0.01 0.01 0.02 0.02 0.03 0.01 0.00 0.00 0.00 0.00 0.00 0.01 0.01 0.01 0.01 0.02 0.01 0.01 0.01 0.01 0.01 0.01 0.02 0.04 0.05 0.05 0.05 0.06 0.07 0.11 0.13 0.16 0.19 0.29
0.00 0.00 0.00 0.00 0.00 0.00 0.00 0.00 0.01 0.01 0.01 0.02 0.03 0.05 0.03 0.01 0.00 0.00 0.00 0.00 0.00 0.00 0.00 0.00 0.00 0.00 0.00 0.00 0.01 0.02 0.03 0.03 0.03 0.03 0.02 0.02 0.03 0.05 0.09 0.15 0.18 0.18 0.20
0.00 0.00 0.00 0.00 0.00 0.00 0.00 0.00 0.01 0.02 0.02 0.03 0.03 0.04 0.04 0.03 0.01 0.00 0.00 0.00 0.00 0.00 0.00 0.00 0.00 0.00 0.00 0.00 0.00 0.02 0.05 0.06 0.07 0.06 0.03 0.01 0.00 0.00 0.01 0.04 0.09 0.13 0.18
0.00 0.00 0.00 0.00 0.00 0.00 0.01 0.01 0.02 0.02 0.02 0.02 0.02 0.03 0.05 0.04 0.02 0.01 0.00 0.00 0.00 0.00 0.00 0.00 0.00 0.00 0.00 0.00 0.00 0.01 0.03 0.04 0.05 0.05 0.03 0.01 0.01 0.01 0.01 0.01 0.01 0.04 0.08
0.00 0.00 0.00 0.00 0.00 0.01 0.01 0.02 0.02 0.01 0.01 0.02 0.01 0.02 0.05 0.07 0.04 0.01 0.01 0.01 0.01 0.01 0.01 0.01 0.00 0.00 0.00 0.00 0.00 0.00 0.01 0.01 0.01 0.01 0.01 0.00 0.01 0.01 0.02 0.04 0.03 0.02 0.01
0.00 0.01 0.00 0.00 0.00 0.01 0.03 0.04 0.03 0.03 0.03 0.02 0.02 0.02 0.02 0.02 0.02 0.02 0.02 0.03 0.04 0.04 0.04 0.03 0.01 0.00 0.00 0.00 0.00 0.00 0.00 0.00 0.00 0.00 0.00 0.00 0.00 0.00 0.01 0.05 0.06 0.02 0.00
0.00 0.00 0.00 0.00 0.01 0.03 0.06 0.08 0.09 0.08 0.07 0.04 0.03 0.02 0.02 0.02 0.02 0.01 0.02 0.02 0.04 0.04 0.05 0.05 0.04 0.01 0.00 0.00 0.00 0.00 0.00 0.00 0.00 0.00 0.00 0.00 0.00 0.00 0.00 0.02 0.03 0.02 0.00
0.00 0.01 0.01 0.01 0.04 0.06 0.08 0.11 0.13 0.12 0.09 0.05 0.03 0.03 0.03 0.03 0.03 0.01 0.01 0.02 0.02 0.02 0.03 0.04 0.04 0.02 0.00 0.00 0.00 0.00 0.00 0.00 0.00 0.00 0.00 0.00 0.00 0.00 0.00 0.00 0.01 0.01 0.00
0.01 0.01 0.02 0.03 0.04 0.04 0.05 0.08 0.10 0.09 0.05 0.03 0.03 0.04 0.05 0.06 0.06 0.05 0.05 0.05 0.06 0.05 0.03 0.03 0.04 0.03 0.01 0.00 0.00 0.00 0.00 0.00 0.00 0.00 0.00 0.00 0.00 0.00 0.00 0.00 0.00 0.00 0.00
0.00 0.01 0.03 0.05 0.04 0.02 0.03 0.05 0.05 0.04 0.02 0.02 0.02 0.02 0.04 0.06 0.09 0.15 0.15 0.14 0.12 0.07 0.05 0.04 0.05 0.05 0.04 0.01 0.00 0.00 0.00 0.00 0.00 0.00 0.00 0.00 0.00 0.00 0.00 0.00 0.00 0.00 0.00
0.00 0.01 0.03 0.04 0.04 0.03 0.04 0.05 0.03 0.02 0.01 0.01 0.02 0.02 0.02 0.05 0.07 0.11 0.14 0.13 0.09 0.05 0.04 0.05 0.05 0.05 0.05 0.02 0.00 0.00 0.00 0.00 0.01 0.00 0.00 0.00 0.00 0.00 0.00 0.00 0.00 0.00 0.00
0.01 0.02 0.04 0.07 0.09 0.07 0.05 0.04 0.02 0.01 0.01 0.01 0.01 0.02 0.02 0.03 0.03 0.03 0.04 0.05 0.04 0.03 0.02 0.03 0.04 0.04 0.03 0.02 0.01 0.00 0.00 0.00 0.00 0.00 0.00 0.00 0.00 0.00 0.00 0.00 0.00 0.00 0.00
0.01 0.02 0.06 0.09 0.09 0.08 0.06 0.03 0.02 0.03 0.05 0.04 0.04 0.04 0.03 0.03 0.03 0.02 0.02 0.01 0.01 0.01 0.01 0.01 0.02 0.02 0.02 0.01 0.01 0.01 0.00 0.00 0.00 0.00 0.00 0.00 0.00 0.00 0.00 0.00 0.00 0.00 0.00
0.00 0.01 0.04 0.05 0.05 0.05 0.05 0.04 0.04 0.04 0.07 0.08 0.08 0.07 0.06 0.05 0.05 0.04 0.02 0.01 0.01 0.01 0.01 0.01 0.02 0.02 0.02 0.02 0.01 0.01 0.01 0.00 0.00 0.00 0.00 0.00 0.00 0.00 0.00 0.00 0.00 0.00 0.00
MSLP
1007.71 1008.05 1008.33 1008.56 1008.77 1008.99 1009.25 1009.57 1009.96 1010.39 1010.81 1011.19 1011.48 1011.65 1011.70 1011.64 1011.52 1011.38 1011.28 1011.25 1011.31 1011.46 1011.69 1011.96 1012.23 1012.48 1012.67 1012.82 1012.93 1013.00 1013.07 1013.13 1013.19 1013.23 1013.23 1013.17 1013.03 1012.81 1012.52 1012.20 1011.88 1011.61 1011.42
1008.25 1008.63 1008.90 1009.09 1009.22 1009.34 1009.51 1009.75 1010.08 1010.48 1010.92 1011.33 1011.66 1011.86 1011.92 1011.85 1011.66 1011.44 1011.22 1011.07 1011.01 1011.07 1011.22 1011.45 1011.71 1011.97 1012.20 1012.39 1012.56 1012.69 1012.81 1012.93 1013.04 1013.12 1013.16 1013.12 1012.99 1012.77 1012.46 1012.09 1011.72 1011.38 1011.13
1008.96 1009.39 1009.69 1009.85 1009.91 1009.94 1009.99 1010.12 1010.36 1010.71 1011.11 1011.52 1011.87 1012.09 1012.16 1012.07 1011.85 1011.55 1011.23 1010.96 1010.78 1010.73 1010.79 1010.95 1011.18 1011.43 1011.68 1011.91 1012.12 1012.31 1012.49 1012.67 1012.83 1012.96 1013.04 1013.05 1012.95 1012.75 1012.44 1012.07 1011.67 1011.29 1010.98
1009.73 1010.24 1010.58 1010.73 1010.74 1010.68 1010.62 1010.63 1010.76 1011.02 1011.36 1011.74 1012.08 1012.32 1012.40 1012.31 1012.06 1011.71 1011.32 1010.96 1010.68 1010.52 1010.48 1010.57 1010.74 1010.97 1011.21 1011.46 1011.70 1011.93 1012.15 1012.36 1012.57 1012.75 1012.87 1012.92 1012.87 1012.71 1012.44 1012.09 1011.70 1011.31 1010.97
1010.46 1011.05 1011.44 1011.61 1011.59 1011.46 1011.30 1011.20 1011.21 1011.36 1011.62 1011.95 1012.27 1012.51 1012.61 1012.53 1012.29 1011.93 1011.51 1011.09 1010.73 1010.48 1010.36 1010.37 1010.48 1010.66 1010.88 1011.11 1011.35 1011.58 1011.82 1012.05 1012.28 1012.48 1012.64 1012.73 1012.73 1012.62 1012.40 1012.10 1011.74 1011.37 1011.02
1011.04 1011.71 1012.15 1012.35 1012.33 1012.16 1011.93 1011.72 1011.63 1011.67 1011.85 1012.12 1012.41 1012.65 1012.76 1012.72 1012.52 1012.18 1011.76 1011.32 1010.93 1010.63 1010.44 1010.38 1010.42 1010.54 1010.71 1010.91 1011.12 1011.32 1011.54 1011.75 1011.97 1012.17 1012.34 1012.45 1012.48 1012.43 1012.27 1012.02 1011.72 1011.39 1011.06
1011.42 1012.13 1012.62 1012.86 1012.86 1012.68 1012.41 1012.14 1011.96 1011.91 1012.01 1012.22 1012.48 1012.71 1012.86 1012.86 1012.71 1012.43 1012.05 1011.63 1011.23 1010.91 1010.68 1010.57 1010.55 1010.61 1010.72 1010.86 1011.01 1011.17 1011.33 1011.49 1011.66 1011.83 1011.98 1012.09 1012.15 1012.12 1012.02 1011.84 1011.59 1011.32 1011.03
1011.57 1012.30 1012.82 1013.11 1013.14 1012.98 1012.70 1012.40 1012.17 1012.06 1012.09 1012.25 1012.48 1012.71 1012.88 1012.93 1012.84 1012.63 1012.31 1011.95 1011.58 1011.27 1011.03 1010.88 1010.81 1010.82 1010.86 1010.93 1011.02 1011.10 1011.19 1011.28 1011.39 1011.50 1011.60 1011.69 1011.73 1011.73 1011.66 1011.53 1011.34 1011.12 1010.89
1011.53 1012.24 1012.78 1013.10 1013.18 1013.06 1012.81 1012.51 1012.26 1012.12 1012.12 1012.23 1012.43 1012.65 1012.84 1012.93 1012.91 1012.77 1012.53 1012.23 1011.92 1011.63 1011.40 1011.24 1011.14 1011.10 1011.09 1011.10 1011.11 1011.12 1011.13 1011.14 1011.16 1011.20 1011.24 1011.28 1011.30 1011.29 1011.24 1011.14 1011.00 1010.83 1010.65
1011.37 1012.03 1012.57 1012.91 1013.04 1012.98 1012.78 1012.52 1012.29 1012.14 1012.11 1012.20 1012.37 1012.58 1012.77 1012.89 1012.92 1012.84 1012.67 1012.44 1012.19 1011.95 1011.74 1011.58 1011.47 1011.40 1011.35 1011.31 1011.26 1011.20 1011.14 1011.08 1011.02 1010.98 1010.96 1010.94 1010.92 1010.88 1010.83 1010.74 1010.63 1010.49 1010.35
1011.19 1011.78 1012.29 1012.65 1012.82 1012.81 1012.68 1012.48 1012.29 1012.16 1012.12 1012.19 1012.33 1012.52 1012.70 1012.83 1012.89 1012.86 1012.75 1012.58 1012.38 1012.19 1012.01 1011.87 1011.77 1011.68 1011.61 1011.53 1011.45 1011.34 1011.23 1011.11 1010.99 1010.89 1010.80 1010.73 1010.66 1010.59 1010.51 1010.42 1010.31 1010.20 1010.08
1011.09 1011.60 1012.07 1012.42 1012.61 1012.66 1012.59 1012.46 1012.31 1012.21 1012.18 1012.23 1012.35 1012.51 1012.67 1012.79 1012.85 1012.85 1012.78 1012.66 1012.51 1012.36 1012.22 1012.11 1012.01 1011.93 1011.85 1011.76 1011.65 1011.53 1011.39 1011.23 1011.09 1010.94 1010.81 1010.69 1010.58 1010.47 1010.36 1010.25 1010.13 1010.01 1009.89
1011.12 1011.56 1011.97 1012.29 1012.49 1012.58 1012.56 1012.48 1012.39 1012.32 1012.30 1012.34 1012.43 1012.56 1012.69 1012.79 1012.85 1012.85 1012.81 1012.72 1012.61 1012.50 1012.39 1012.30 1012.22 1012.14 1012.07 1011.98 1011.87 1011.74 1011.60 1011.45 1011.29 1011.13 1010.98 1010.83 1010.69 1010.55 1010.41 1010.26 1010.11 1009.97 1009.84
1011.32 1011.67 1012.01 1012.29 1012.49 1012.59 1012.61 1012.57 1012.52 1012.48 1012.47 1012.51 1012.58 1012.67 1012.77 1012.85 1012.89 1012.89 1012.86 1012.80 1012.72 1012.63 1012.55 1012.47 1012.41 1012.35 1012.28 1012.20 1012.10 1011.99 1011.86 1011.72 1011.58 1011.43 1011.28 1011.13 1010.97 1010.81 1010.63 1010.45 1010.27 1010.10 1009.94
1011.64 1011.92 1012.19 1012.42 1012.58 1012.68 1012.71 1012.71 1012.69 1012.68 1012.68 1012.71 1012.76 1012.83 1012.90 1012.95 1012.98 1012.98 1012.95 1012.91 1012.85 1012.79 1012.73 1012.67 1012.61 1012.56 1012.49 1012.42 1012.34 1012.25 1012.15 1012.04 1011.92 1011.80 1011.67 1011.53 1011.38 1011.20 1011.01 1010.79 1010.58 1010.37 1010.18
1012.02 1012.23 1012.43 1012.60 1012.73 1012.80 1012.84 1012.86 1012.86 1012.87 1012.88 1012.92 1012.96 1013.01 1013.06 1013.09 1013.11 1013.12 1013.10 1013.07 1013.03 1012.99 1012.94 1012.90 1012.85 1012.79 1012.73 1012.67 1012.60 1012.52 1012.44 1012.37 1012.29 1012.20 1012.11 1011.99 1011.85 1011.67 1011.47 1011.23 1010.99 1010.75 1010.52
1012.36 1012.52 1012.66 1012.78 1012.86 1012.92 1012.95 1012.98 1013.00 1013.03 1013.06 1013.10 1013.14 1013.19 1013.23 1013.26 1013.28 1013.29 1013.29 1013.28 1013.27 1013.24 1013.21 1013.18 1013.13 1013.07 1013.01 1012.94 1012.87 1012.81 1012.75 1012.70 1012.66 1012.61 1012.54 1012.46 1012.33 1012.17 1011.96 1011.72 1011.46 1011.19 1010.93
1012.59 1012.71 1012.81 1012.88 1012.93 1012.98 1013.01 1013.05 1013.09 1013.14 1013.19 1013.25 1013.30 1013.36 1013.40 1013.44 1013.47 1013.50 1013.52 1013.53 1013.54 1013.55 1013.54 1013.51 1013.47 1013.41 1013.35 1013.28 1013.20 1013.14 1013.09 1013.06 1013.03 1013.01 1012.97 1012.91 1012.81 1012.66 1012.46 1012.21 1011.94 1011.65 1011.37
1012.64 1012.75 1012.82 1012.87 1012.91 1012.96 1013.01 1013.07 1013.14 1013.22 1013.30 1013.38 1013.45 1013.52 1013.58 1013.63 1013.68 1013.72 1013.77 1013.82 1013.86 1013.89 1013.91 1013.90 1013.87 1013.82 1013.76 1013.68 1013.60 1013.54 1013.49 1013.45 1013.44 1013.42 1013.40 1013.35 1013.26 1013.12 1012.93 1012.68 1012.40 1012.11 1011.81
1012.53 1012.63 1012.70 1012.75 1012.81 1012.87 1012.95 1013.05 1013.16 1013.28 1013.39 1013.50 1013.60 1013.68 1013.76 1013.82 1013.89 1013.96 1014.03 1014.11 1014.19 1014.26 1014.31 1014.34 1014.33 1014.30 1014.24 1014.17 1014.09 1014.01 1013.95 1013.91 1013.88 1013.86 1013.83 1013.78 1013.69 1013.55 1013.36 1013.12 1012.84 1012.54 1012.23
1012.27 1012.39 1012.47 1012.56 1012.64 1012.74 1012.87 1013.01 1013.17 1013.33 1013.49 1013.63 1013.75 1013.85 1013.94 1014.02 1014.10 1014.19 1014.29 1014.40 1014.52 1014.63 1014.72 1014.79 1014.83 1014.82 1014.79 1014.73 1014.65 1014.57 1014.49 1014.42 1014.37 1014.32 1014.26 1014.19 1014.09 1013.95 1013.75 1013.51 1013.23 1012.93 1012.62
1011.94 1012.08 1012.20 1012.32 1012.45 1012.61 1012.79 1012.98 1013.19 1013.40 1013.60 1013.77 1013.91 1014.03 1014.12 1014.21 1014.30 1014.40 1014.52 1014.65 1014.81 1014.96 1015.11 1015.23 1015.32 1015.36 1015.36 1015.32 1015.26 1015.17 1015.07 1014.97 1014.88 1014.79 1014.69 1014.58 1014.45 1014.28 1014.07 1013.83 1013.55 1013.25 1012.94
1011.60 1011.78 1011.94 1012.10 1012.28 1012.48 1012.72 1012.97 1013.22 1013.47 1013.70 1013.89 1014.05 1014.17 1014.27 1014.36 1014.44 1014.55 1014.68 1014.84 1015.02 1015.22 1015.42 1015.60 1015.75 1015.85 1015.90 1015.89 1015.84 1015.75 1015.64 1015.50 1015.36 1015.22 1015.06 1014.91 1014.73 1014.53 1014.31 1014.05 1013.78 1013.48 1013.18
1011.31 1011.52 1011.71 1011.91 1012.14 1012.38 1012.66 1012.95 1013.24 1013.52 1013.77 1013.97 1014.14 1014.26 1014.35 1014.42 1014.50 1014.60 1014.73 1014.91 1015.12 1015.36 1015.61 1015.85 1016.06 1016.22 1016.32 1016.36 1016.33 1016.24 1016.11 1015.94 1015.75 1015.55 1015.34 1015.12 1014.90 1014.67 1014.43 1014.18 1013.91 1013.63 1013.34
1011.09 1011.32 1011.54 1011.77 1012.02 1012.30 1012.59 1012.90 1013.21 1013.50 1013.76 1013.97 1014.12 1014.23 1014.30 1014.36 1014.43 1014.52 1014.65 1014.84 1015.07 1015.35 1015.64 1015.93 1016.20 1016.42 1016.57 1016.64 1016.64 1016.56 1016.41 1016.21 1015.98 1015.73 1015.47 1015.21 1014.95 1014.70 1014.45 1014.20 1013.95 1013.69 1013.43
1010.92 1011.17 1011.41 1011.65 1011.91 1012.19 1012.49 1012.80 1013.11 1013.39 1013.63 1013.83 1013.97 1014.06 1014.12 1014.16 1014.21 1014.29 1014.42 1014.61 1014.86 1015.15 1015.48 1015.82 1016.13 1016.40 1016.59 1016.70 1016.72 1016.65 1016.49 1016.28 1016.02 1015.73 1015.44 1015.15 1014.88 1014.62 1014.38 1014.15 1013.93 1013.71 1013.50
Thickness
5813 5817 5816 5815 5813 5809 5804 5799 5795 5793 5791 5788 5785 5782 5781 5782 5783 5783 5782 5781 5779 5778 5776 5773 5770 5766 5761 5759 5760 5760 5759 5758 5759 5755 5755 5761 5769 5769 5767 5766 5764 5764 5763
5798 5801 5802 5801 5800 5796 5793 5789 5786 5785 5783 5781 5779 5777 5776 5777 5778 5778 5778 5775 5773 5772 5770 5767 5764 5761 5757 5755 5753 5753 5750 5751 5753 5748 5743 5742 5750 5760 5764 5763 5761 5761 5761
5784 5785 5784 5782 5782 5779 5778 5777 5775 5774 5773 5772 5771 5770 5769 5768 5768 5769 5769 5770 5769 5768 5766 5764 5761 5758 5754 5750 5748 5747 5744 5741 5745 5746 5739 5733 5732 5741 5752 5757 5759 5759 5757
5773 5770 5768 5765 5765 5764 5765 5764 5763 5762 5762 5761 5760 5757 5754 5753 5757 5759 5762 5763 5763 5763 5762 5760 5758 5754 5751 5747 5745 5745 5742 5738 5735 5738 5739 5738 5736 5729 5731 5744 5752 5755 5754
5756 5754 5754 5753 5753 5753 5753 5753 5752 5751 5751 5750 5749 5747 5745 5746 5748 5750 5752 5753 5755 5756 5756 5755 5753 5749 5746 5744 5741 5739 5736 5735 5731 5730 5731 5731 5732 5731 5724 5725 5736 5744 5750
5740 5740 5741 5742 5741 5743 5743 5744 5742 5741 5741 5740 5739 5737 5735 5734 5734 5735 5737 5740 5743 5746 5748 5748 5745 5742 5739 5738 5735 5733 5730 5729 5727 5726 5727 5726 5725 5725 5724 5723 5726 5731 5741
5726 5726 5726 5727 5728 5730 5732 5733 5733 5732 5732 5731 5729 5728 5726 5725 5724 5724 5724 5725 5728 5731 5733 5735 5734 5732 5731 5730 5728 5725 5723 5722 5720 5720 5721 5724 5725 5726 5726 5724 5724 5727 5733
5715 5715 5716 5716 5717 5718 5720 5722 5722 5721 5721 5720 5719 5718 5716 5716 5714 5713 5712 5711 5711 5713 5715 5717 5718 5718 5719 5719 5718 5716 5715 5716 5714 5714 5715 5717 5720 5723 5726 5723 5721 5718 5720
5701 5702 5703 5704 5704 5706 5707 5709 5709 5708 5708 5708 5708 5707 5705 5703 5701 5701 5700 5699 5699 5699 5699 5699 5700 5702 5705 5706 5706 5705 5706 5707 5706 5706 5708 5709 5713 5717 5721 5721 5719 5712 5707
5690 5691 5691 5691 5691 5693 5695 5696 5697 5696 5696 5697 5696 5695 5693 5691 5689 5688 5687 5686 5685 5686 5686 5686 5686 5687 5689 5691 5693 5695 5697 5697 5697 5698 5700 5703 5706 5711 5715 5716 5715 5713 5707
5682 5681 5681 5681 5681 5682 5682 5683 5684 5685 5685 5686 5686 5685 5683 5681 5680 5678 5677 5676 5675 5675 5676 5676 5676 5676 5677 5680 5683 5686 5688 5688 5689 5691 5694 5696 5701 5703 5707 5709 5709 5708 5706
5675 5675 5674 5672 5671 5671 5672 5673 5673 5674 5676 5677 5677 5676 5675 5674 5672 5670 5670 5670 5669 5668 5670 5670 5669 5669 5671 5673 5675 5678 5681 5681 5682 5685 5687 5689 5693 5695 5699 5701 5703 5704 5704
5664 5663 5661 5660 5659 5659 5660 5663 5664 5665 5667 5668 5668 5667 5667 5665 5663 5662 5662 5662 5662 5663 5664 5665 5665 5666 5668 5669 5671 5673 5675 5676 5677 5678 5678 5680 5683 5685 5689 5694 5697 5699 5700
5650 5650 5648 5648 5647 5648 5650 5653 5655 5657 5658 5659 5658 5657 5657 5656 5656 5655 5655 5654 5655 5655 5657 5658 5660 5662 5662 5661 5663 5666 5669 5670 5670 5670 5670 5670 5671 5673 5678 5685 5687 5691 5693
5639 5639 5638 5637 5637 5639 5641 5644 5646 5647 5649 5649 5649 5648 5649 5648 5648 5648 5648 5648 5648 5648 5648 5648 5648 5650 5650 5649 5651 5655 5660 5660 5660 5660 5660 5659 5661 5662 5666 5670 5674 5679 5682
5630 5630 5630 5629 5629 5630 5633 5635 5636 5638 5640 5640 5640 5640 5640 5639 5639 5639 5639 5639 5638 5638 5638 5637 5635 5634 5635 5635 5638 5642 5647 5648 5648 5648 5649 5650 5651 5654 5656 5658 5661 5664 5668
5619 5619 5620 5620 5620 5622 5625 5627 5629 5631 5631 5631 5631 5631 5630 5629 5629 5630 5628 5627 5626 5626 5626 5625 5623 5620 5619 5621 5624 5627 5632 5633 5634 5635 5637 5639 5639 5641 5644 5648 5650 5653 5656
5612 5612 5613 5614 5615 5617 5619 5621 5623 5623 5623 5622 5621 5621 5620 5619 5618 5617 5615 5614 5613 5613 5612 5612 5611 5610 5608 5608 5610 5612 5617 5618 5619 5620 5622 5623 5623 5625 5631 5637 5638 5640 5641
5608 5608 5609 5610 5610 5611 5613 5615 5615 5615 5614 5613 5612 5611 5610 5609 5607 5605 5603 5602 5602 5601 5602 5601 5601 5599 5597 5596 5598 5601 5605 5604 5604 5604 5604 5606 5607 5610 5617 5622 5624 5626 5628
5606 5606 5607 5607 5606 5606 5607 5607 5607 5607 5606 5606 5604 5603 5602 5601 5599 5596 5594 5592 5591 5591 5591 5590 5589 5588 5586 5584 5587 5591 5594 5593 5593 5593 5592 5591 5592 5595 5600 5605 5608 5609 5612
5604 5604 5605 5603 5602 5602 5602 5601 5600 5599 5599 5598 5597 5595 5595 5594 5592 5589 5587 5584 5582 5581 5580 5578 5577 5577 5575 5575 5575 5577 5579 5581 5582 5582 5580 5578 5578 5582 5585 5589 5592 5593 5597
5603 5603 5601 5599 5598 5598 5597 5594 5592 5592 5592 5590 5589 5588 5587 5588 5586 5583 5580 5578 5576 5574 5573 5570 5567 5566 5566 5565 5565 5565 5566 5568 5567 5566 5566 5566 5567 5569 5573 5577 5580 5584 5588
5603 5602 5599 5596 5594 5593 5592 5588 5586 5586 5585 5583 5582 5581 5580 5579 5578 5576 5574 5572 5571 5569 5567 5564 5560 5558 5557 5556 5556 5556 5556 5556 5556 5556 5555 5556 5558 5560 5563 5565 5567 5570 5573
5602 5600 5597 5593 5590 5589 5588 5585 5583 5581 5580 5578 5576 5574 5573 5572 5571 5570 5569 5567 5565 5563 5561 5558 5554 5552 5549 5547 5547 5547 5547 5546 5546 5546 5547 5549 5550 5551 5552 5555 5557 5559 5560
5603 5599 5595 5592 5589 5586 5584 5583 5581 5579 5577 5575 5574 5572 5569 5567 5564 5563 5560 5559 5556 5554 5552 5550 5548 5545 5541 5536 5534 5534 5534 5532 5531 5532 5536 5538 5540 5542 5543 5545 5547 5549 5551
5604 5600 5596 5592 5589 5585 5582 5581 5579 5577 5575 5573 5571 5570 5568 5565 5562 5559 5555 5548 5547 5543 5541 5539 5538 5534 5531 5528 5526 5525 5523 5522 5520 5520 5524 5527 5530 5531 5533 5534 5536 5538 5540